TimeHST,TemperatureF,Dew PointF,Humidity,Sea Level PressureIn,VisibilityMPH,Wind Direction,Wind SpeedMPH,Gust SpeedMPH,PrecipitationIn,Events,Conditions,WindDirDegrees,DateUTC
12:53 AM,75.9,64.0,67,29.99,10.0,Calm,Calm,-,N/A,,Scattered Clouds,0,2013-07-15 10:53:00
1:53 AM,77.0,64.0,64,29.97,10.0,NE,3.5,-,N/A,,Mostly Cloudy,40,2013-07-15 11:53:00
2:53 AM,75.9,64.9,69,29.96,10.0,ENE,5.8,-,N/A,,Scattered Clouds,70,2013-07-15 12:53:00
3:53 AM,75.9,64.9,69,29.96,10.0,ENE,3.5,-,N/A,,Scattered Clouds,70,2013-07-15 13:53:00
4:53 AM,75.9,66.0,71,29.97,10.0,NNE,3.5,-,N/A,,Scattered Clouds,30,2013-07-15 14:53:00
5:53 AM,75.0,66.0,73,29.97,10.0,Calm,Calm,-,N/A,,Scattered Clouds,0,2013-07-15 15:53:00
6:53 AM,75.9,64.0,67,29.99,10.0,ENE,5.8,-,N/A,,Scattered Clouds,60,2013-07-15 16:53:00
7:53 AM,78.1,64.0,62,30.00,10.0,NE,6.9,-,N/A,,Scattered Clouds,50,2013-07-15 17:53:00
8:53 AM,81.0,63.0,54,30.00,10.0,ENE,9.2,-,N/A,,Scattered Clouds,60,2013-07-15 18:53:00
9:53 AM,82.0,64.0,54,30.00,10.0,ENE,9.2,-,N/A,,Scattered Clouds,60,2013-07-15 19:53:00
10:53 AM,84.0,63.0,49,29.99,10.0,East,10.4,-,N/A,,Scattered Clouds,90,2013-07-15 20:53:00
11:53 AM,86.0,62.1,44,29.99,10.0,East,11.5,19.6,N/A,,Mostly Cloudy,90,2013-07-15 21:53:00
12:53 PM,82.0,64.0,54,29.98,10.0,ESE,13.8,-,N/A,,Mostly Cloudy,120,2013-07-15 22:53:00
1:53 PM,80.1,66.0,62,29.97,10.0,SE,15.0,-,0.00,,Mostly Cloudy,140,2013-07-15 23:53:00
2:53 PM,82.0,63.0,52,29.96,10.0,ENE,9.2,17.3,N/A,,Mostly Cloudy,70,2013-07-16 00:53:00
3:53 PM,84.9,63.0,48,29.95,10.0,ENE,12.7,-,N/A,,Mostly Cloudy,70,2013-07-16 01:53:00
4:53 PM,84.0,63.0,49,29.95,10.0,ENE,16.1,-,N/A,,Mostly Cloudy,70,2013-07-16 02:53:00
5:53 PM,82.0,64.0,54,29.96,10.0,ENE,13.8,-,N/A,,Scattered Clouds,60,2013-07-16 03:53:00
6:53 PM,80.1,66.0,62,29.98,10.0,East,13.8,-,N/A,,Scattered Clouds,80,2013-07-16 04:53:00
7:53 PM,78.1,66.0,66,30.00,10.0,East,11.5,-,N/A,,Scattered Clouds,80,2013-07-16 05:53:00
8:53 PM,78.1,64.9,64,30.01,10.0,ENE,11.5,-,N/A,,Scattered Clouds,60,2013-07-16 06:53:00
9:53 PM,78.1,64.9,64,30.02,10.0,ENE,9.2,-,N/A,,Partly Cloudy,70,2013-07-16 07:53:00
10:53 PM,77.0,64.9,66,30.03,10.0,NE,10.4,-,N/A,,Partly Cloudy,50,2013-07-16 08:53:00
11:53 PM,77.0,64.9,66,30.02,10.0,ENE,8.1,-,N/A,,Partly Cloudy,60,2013-07-16 09:53:00